Overview Statistics Trail Chart Weather Telemetry Raw packets
 

This is the latest recevied weather packets stored in our database for station/object KQ4EHY-1. If no packets are shown the sender has not sent any weather packets the latest 10 day(s).

<< 21 22 23 24 25 26 27 >>
Time Temp. Humidity Pressure Rain* Wind** Luminosity Snow
1788617049 29.44° C 77% 1010.4 hPa 0 mm 0 m/s - -
1788616989 29.44° C 77% 1010.4 hPa 0 mm 0 m/s - -
1788616929 29.44° C 77% 1010.4 hPa 0 mm 0 m/s - -
1788616869 29.44° C 77% 1010.4 hPa 0 mm 0 m/s - -
1788616809 28.89° C 79% 1010.1 hPa 0 mm 0 m/s - -
1788616749 28.89° C 79% 1010.1 hPa 0 mm 0 m/s - -
1788616689 28.89° C 79% 1010.1 hPa 0 mm 0 m/s - -
1788616629 28.89° C 79% 1010.1 hPa 0 mm 0 m/s - -
1788616569 28.89° C 79% 1010.1 hPa 0 mm 0 m/s - -
1788616509 28.33° C 81% 1010.2 hPa 0 mm 0 m/s - -
1788616449 28.33° C 81% 1010.2 hPa 0 mm 0 m/s - -
1788616389 28.33° C 81% 1010.2 hPa 0 mm 0 m/s - -
1788616329 28.33° C 81% 1010.2 hPa 0 mm 0 m/s - -
1788616269 28.33° C 81% 1010.2 hPa 0 mm 0 m/s - -
1788616209 27.78° C 84% 1010.1 hPa 0 mm 0 m/s - -
1788616149 27.78° C 84% 1010.1 hPa 0 mm 0 m/s - -
1788616089 27.78° C 84% 1010.1 hPa 0 mm 0 m/s - -
1788616029 27.78° C 84% 1010.1 hPa 0 mm 0 m/s - -
1788615969 27.78° C 84% 1010.1 hPa 0 mm 0 m/s - -
1788615909 26.67° C 89% 1010.4 hPa 0 mm 0 m/s - -
1788615849 26.67° C 89% 1010.4 hPa 0 mm 0 m/s - -
1788615789 26.67° C 89% 1010.4 hPa 0 mm 0 m/s - -
1788615729 26.67° C 89% 1010.4 hPa 0 mm 0 m/s - -
1788615670 26.67° C 89% 1010.4 hPa 0 mm 0 m/s - -
1788615609 25.56° C 95% 1010.7 hPa 0 mm 0 m/s - -

* Rain latest hour (hover to see other rain measurements)
** Current wind speed in m/s (hover to see current wind gust speed)